[[{"header":{"parameterUnit":"m.s-1","parameterCategory":1,"la1":30.2991,"la2":30.254,"lo1":-89.0895,"lo2":-89.0444,"dy":0.0017,"dx":0.0017,"nx":28,"ny":28,"refTime":"2024-05-03T03:00:00:Z","depth":0,"parameterNumber":2,"parameterNumberName":"U-component_of_WINDS"},"data":[0,0,0,0,0,0,0,0,0,0,0,0,0,0,0,0,0,0,0,0,0,0,0,0,0,0,0,0,0,0,0,0,0,0,0,0,0,0,0,0,0,0,0,0,0,0,0,0,0,0,0,0,0,0,0,0,0,0,-2.4463,-2.4463,0,-2.4498,-2.4498,-2.4498,-2.4464,-2.4463,-2.4461,-2.446,-2.4498,-2.45,-2.4503,0,0,0,0,0,0,0,0,0,0,0,0,0,-2.4369,-2.4371,-2.4463,-2.4463,-2.4463,-2.4497,-2.4498,-2.4498,-2.4464,-2.4463,-2.4461,-2.4459,-2.4497,-2.45,-2.4503,0,0,0,0,0,0,0,0,0,0,0,0,0,-2.4408,-2.4372,-2.4463,-2.445,-2.445,-2.4497,-2.4498,-2.4499,-2.4465,-2.4463,-2.4461,-2.4459,-2.4496,-2.45,-2.4503,-2.4565,0,0,-2.4514,-2.4515,0,0,0,0,0,0,0,0,-2.4405,-2.4411,-2.4452,-2.4451,-2.4451,-2.4474,-2.4479,-2.4521,-2.4465,-2.4459,-2.446,-2.4458,-2.4492,-2.4496,-2.4507,-2.4567,-2.4569,-2.4514,-2.4516,-2.4517,-2.4518,0,0,0,0,0,0,0,-2.4403,-2.4409,-2.4476,-2.4452,-2.4452,-2.4444,-2.4447,-2.4487,-2.4487,-2.4459,-2.4457,-2.4461,-2.4491,-2.4504,-2.4507,-2.4569,-2.4514,-2.4517,-2.4519,-2.452,-2.4683,-2.4685,0,0,0,0,0,0,-2.4401,-2.4407,-2.4475,-2.4478,-2.4422,-2.4448,-2.4451,-2.4469,-2.4486,-2.4487,-2.4463,-2.446,-2.4499,-2.4503,-2.4509,-2.4583,-2.4517,-2.4521,-2.4523,-2.4681,-2.4683,-2.4686,0,0,0,0,0,0,-2.4399,-2.4407,-2.4474,-2.4442,-2.445,-2.4451,-2.4471,-2.4471,-2.4483,-2.4489,-2.4489,-2.4476,-2.4497,-2.4504,-2.4551,-2.4583,-2.4522,-2.4525,-2.4678,-2.4681,-2.4685,-2.4731,0,0,0,0,0,0,-2.4397,-2.4407,-2.443,-2.4443,-2.4451,-2.4515,-2.4473,-2.4473,-2.4488,-2.4484,-2.45,-2.4501,-2.4496,-2.4546,-2.4555,-2.4587,-2.4528,-2.4675,-2.468,-2.4684,-2.4727,-2.4736,-2.4743,0,0,0,0,0,-2.4393,-2.4442,-2.4431,-2.444,-2.448,-2.4517,-2.4523,-2.4515,-2.4491,-2.4515,-2.4519,-2.4501,-2.4579,-2.4552,-2.4561,-2.4594,-2.4673,-2.4678,-2.4683,-2.4723,-2.4734,-2.4743,0,0,0,0,0,0,-2.4433,-2.4443,-2.4431,-2.4485,-2.4501,-2.4511,-2.4541,-2.4527,-2.455,-2.4545,-2.4535,-2.454,-2.459,-2.4597,-2.4567,-2.4656,-2.4622,-2.4629,-2.4649,-2.466,-2.4668,-2.4665,-2.4531,0,0,0,0,0,-2.4448,-2.4477,-2.4484,-2.4531,-2.454,-2.4539,-2.4555,-2.4548,-2.4564,-2.457,-2.4578,-2.4595,-2.4623,-2.4642,-2.4668,-2.4728,-2.4731,-2.4756,-2.4764,-2.4771,-2.4777,-2.481,-2.4821,-2.4703,-2.4703,-2.4702,0,0,-2.448,-2.4489,-2.4508,-2.454,-2.4551,-2.4581,-2.4545,-2.4579,-2.4602,-2.4576,-2.4621,-2.4627,-2.4645,-2.4699,-2.4724,-2.4707,-2.481,-2.4777,-2.4783,-2.4785,-2.4816,-2.4827,-2.4837,-2.4706,-2.4705,-2.4705,0,0,-2.4553,-2.4562,-2.4602,-2.4614,-2.4631,-2.4631,-2.4641,-2.4654,-2.4657,-2.4702,-2.4683,-2.4711,-2.476,-2.4773,-2.4787,-2.4866,-2.4851,-2.4875,-2.4919,-2.4951,-2.496,-2.4968,-2.4997,-2.5007,-2.4882,-2.4882,-2.4882,0,-2.459,-2.4635,-2.4625,-2.4661,-2.4676,-2.4653,-2.4694,-2.4706,-2.4732,-2.4743,-2.4724,-2.4785,-2.4796,-2.4853,-2.4872,-2.4884,-2.4895,-2.4873,-2.4959,-2.4967,-2.4975,-2.5002,-2.5013,-2.4885,-2.4884,-2.4884,-2.4884,0,-2.468,-2.4711,-2.4742,-2.4766,-2.4784,-2.4823,-2.482,-2.484,-2.4832,-2.4833,-2.488,-2.4892,-2.4921,-2.4934,-2.4927,-2.4991,-2.498,-2.496,-2.4926,-2.4989,-2.5014,-2.5025,-2.4889,-2.4888,-2.4887,-2.4886,0,0,-2.4778,-2.4797,-2.4808,-2.4819,-2.4837,-2.4861,-2.4899,-2.4926,-2.4944,-2.4963,-2.4995,-2.5037,-2.5019,-2.5034,-2.5028,-2.5056,-2.5119,-2.5033,-2.5034,-2.5049,-2.5191,-2.5205,-2.5218,-2.5109,-2.5111,-2.5112,-2.5189,0,-2.4852,-2.4916,-2.4909,-2.4971,-2.5,-2.498,-2.5013,-2.5028,-2.5031,-2.5057,-2.506,-2.509,-2.5064,-2.5073,-2.51,-2.5105,-2.5147,-2.51,-2.5139,-2.5141,-2.5135,-2.5231,-2.5246,-2.5318,-2.5199,-2.5201,-2.5202,0,-2.4946,-2.4967,-2.5031,-2.5045,-2.5057,-2.5087,-2.5111,-2.5136,-2.5153,-2.5154,-2.5171,-2.5161,-2.52,-2.5165,-2.5219,-2.5187,-2.5203,-2.5208,-2.5211,-2.5214,-2.5175,-2.5237,-2.5341,-2.5352,-2.5218,-2.5216,-2.5215,0,-2.5011,-2.5056,-2.51,-2.5111,-2.5127,-2.5149,-2.5157,-2.5172,-2.5189,-2.5211,-2.5222,-2.5249,-2.5264,-2.5286,-2.5283,-2.5258,-2.5338,-2.5303,-2.534,-2.534,-2.5358,-2.5357,-2.5466,-2.5368,-2.5368,-2.5368,-2.5368,0,-2.5094,-2.5134,-2.513,-2.5158,-2.5202,-2.5195,-2.524,-2.5245,-2.5259,-2.5288,-2.5272,-2.53,-2.5295,-2.5323,-2.5321,-2.5367,-2.5373,-2.5375,-2.5374,-2.5377,-2.5376,-2.5387,-2.5382,-2.5371,-2.537,-2.537,-2.5369,0,-2.5175,-2.5173,-2.5221,-2.5233,-2.5237,-2.5269,-2.528,-2.5307,-2.5308,-2.5345,-2.5354,-2.5357,-2.5389,-2.5389,-2.5425,-2.5424,-2.548,-2.5474,-2.5474,-2.5473,-2.551,-2.5506,-2.563,-2.5646,-2.5537,-2.5538,-2.5539,0,-2.5227,-2.5258,-2.5273,-2.5291,-2.53,-2.5329,-2.5347,-2.5341,-2.536,-2.5382,-2.5406,-2.5436,-2.546,-2.5513,-2.5519,-2.5548,-2.5542,-2.5583,-2.5546,-2.5547,-2.5543,-2.5541,-2.5544,-2.559,-2.5591,-2.5592,-2.5593,0,-2.5321,-2.5319,-2.5344,-2.537,-2.539,-2.541,-2.5428,-2.5444,-2.544,-2.5463,-2.5495,-2.5513,-2.5551,-2.5582,-2.5609,-2.5619,-2.5606,-2.5605,-2.5615,-2.5617,-2.5617,-2.5618,-2.5494,-2.5602,-2.5601,-2.56,-2.56,-2.56,-2.539,-2.5416,-2.5431,-2.546,-2.5473,-2.549,-2.5515,-2.552,-2.5547,-2.5576,-2.5572,-2.5608,-2.5625,-2.5661,-2.5673,-2.5702,-2.5687,-2.5702,-2.5706,-2.5709,-2.5713,-2.5612,-2.5707,-2.5707,-2.5706,-2.5706,-2.5706,0,-2.5483,-2.5492,-2.5518,-2.5544,-2.5567,-2.5552,-2.5571,-2.5592,-2.5623,-2.564,-2.5664,-2.5702,-2.5732,-2.5741,-2.577,-2.5792,-2.5787,-2.58,-2.5798,-2.5801,-2.5725,-2.5713,-2.5803,-2.5803,-2.5803,-2.5803,-2.5803,-2.5803,-2.5534,-2.5578,-2.5578,-2.5628,-2.5637,-2.5672,-2.5684,-2.5701,-2.5714,-2.5756,-2.5781,-2.5786,-2.58,-2.5831,-2.5858,-2.586,-2.5872,-2.5887,-2.5887,-2.5816,-2.5806,-2.5796,-2.5785,-2.589,-2.589,-2.596,-2.5961,-2.5961]},{"header":{"parameterUnit":"m.s-1","parameterCategory":1,"la1":30.2991,"la2":30.254,"lo1":-89.0895,"lo2":-89.0444,"dy":0.0017,"dx":0.0017,"nx":28,"ny":28,"refTime":"2024-05-03T03:00:00:Z","depth":0,"parameterNumber":3,"parameterNumberName":"V-component_of_WINDS"},"data":[0,0,0,0,0,0,0,0,0,0,0,0,0,0,0,0,0,0,0,0,0,0,0,0,0,0,0,0,0,0,0,0,0,0,0,0,0,0,0,0,0,0,0,0,0,0,0,0,0,0,0,0,0,0,0,0,0,0,1.3439,1.344,0,1.3474,1.3475,1.3475,1.3492,1.3492,1.3492,1.3492,1.3527,1.3528,1.3529,0,0,0,0,0,0,0,0,0,0,0,0,0,1.3387,1.3388,1.3439,1.344,1.344,1.3474,1.3475,1.3475,1.3492,1.3492,1.3492,1.3492,1.3527,1.3528,1.3529,0,0,0,0,0,0,0,0,0,0,0,0,0,1.3415,1.3388,1.3439,1.3453,1.3454,1.3474,1.3475,1.3475,1.3492,1.3492,1.3492,1.3492,1.3526,1.3528,1.3529,1.3538,0,0,1.3533,1.3534,0,0,0,0,0,0,0,0,1.3413,1.3417,1.345,1.3452,1.3454,1.3479,1.3469,1.3496,1.3492,1.3478,1.3492,1.3492,1.3511,1.3514,1.352,1.354,1.3541,1.3534,1.3534,1.3535,1.3535,0,0,0,0,0,0,0,1.3411,1.3415,1.3453,1.3451,1.3453,1.3457,1.3461,1.3474,1.3494,1.3479,1.348,1.3484,1.3512,1.3519,1.3521,1.3542,1.3533,1.3535,1.3536,1.3536,1.3571,1.3571,0,0,0,0,0,0,1.3407,1.3413,1.3452,1.3454,1.3433,1.3458,1.3462,1.3471,1.3494,1.3497,1.3484,1.3485,1.3516,1.3519,1.3522,1.3535,1.3535,1.3536,1.3537,1.3571,1.3571,1.3571,0,0,0,0,0,0,1.3406,1.341,1.3451,1.3434,1.344,1.3459,1.3468,1.3471,1.3478,1.3498,1.3501,1.3488,1.3516,1.352,1.3534,1.3536,1.3537,1.3538,1.3571,1.3571,1.3571,1.356,0,0,0,0,0,0,1.3404,1.341,1.3413,1.3434,1.344,1.3462,1.3468,1.3472,1.3481,1.3482,1.3502,1.3505,1.3517,1.3532,1.3536,1.3538,1.3539,1.3571,1.3571,1.3571,1.356,1.3559,1.3559,0,0,0,0,0,1.3402,1.3408,1.3413,1.3418,1.3445,1.3462,1.3466,1.3479,1.3481,1.3485,1.3497,1.3505,1.3535,1.3533,1.3537,1.3541,1.3571,1.3571,1.3571,1.356,1.3559,1.3559,0,0,0,0,0,0,1.3387,1.3411,1.3417,1.343,1.3444,1.3465,1.347,1.3478,1.3491,1.3491,1.3507,1.3511,1.3524,1.3534,1.3531,1.3551,1.3554,1.3555,1.3544,1.3544,1.3543,1.354,1.354,0,0,0,0,0,1.3385,1.3397,1.3417,1.3427,1.3433,1.345,1.3458,1.3467,1.3482,1.3488,1.3501,1.3515,1.3528,1.3536,1.3549,1.3561,1.3566,1.3566,1.3565,1.3564,1.3565,1.3573,1.3573,1.3572,1.3572,1.3572,0,0,1.3381,1.3396,1.3402,1.3424,1.3436,1.3447,1.3455,1.3467,1.3476,1.349,1.3504,1.3514,1.3531,1.3544,1.355,1.3552,1.3567,1.3565,1.3564,1.3565,1.3573,1.3573,1.3573,1.3572,1.3572,1.3572,0,0,1.338,1.3392,1.3402,1.3414,1.3432,1.3443,1.3445,1.3465,1.3473,1.3487,1.3498,1.3509,1.3531,1.3542,1.3551,1.3555,1.3563,1.3559,1.3556,1.3564,1.3564,1.3564,1.3566,1.3567,1.356,1.356,1.356,0,1.3373,1.3391,1.3406,1.3417,1.3427,1.344,1.345,1.3461,1.3482,1.3488,1.349,1.3518,1.353,1.3547,1.3548,1.3554,1.3558,1.3557,1.3563,1.3563,1.3564,1.3566,1.3566,1.3559,1.3559,1.3559,1.3559,0,1.3382,1.3395,1.34,1.3421,1.3431,1.3441,1.3457,1.3466,1.3474,1.3486,1.35,1.3516,1.3532,1.3537,1.3545,1.3554,1.3555,1.356,1.3563,1.3563,1.3565,1.3566,1.3558,1.3559,1.3559,1.3559,0,0,1.3372,1.3401,1.3403,1.3413,1.3434,1.3443,1.3455,1.3471,1.3479,1.3493,1.3503,1.3522,1.3526,1.3536,1.3546,1.3552,1.3555,1.3556,1.3557,1.3556,1.3568,1.3564,1.3565,1.3561,1.3561,1.3561,1.3567,0,1.3374,1.3396,1.3409,1.3425,1.3437,1.345,1.346,1.3474,1.3485,1.3497,1.3509,1.3522,1.3527,1.3534,1.3541,1.3554,1.3558,1.3553,1.357,1.3571,1.3566,1.3566,1.3563,1.3567,1.3567,1.3568,1.3568,0,1.338,1.3394,1.3411,1.3432,1.3437,1.3446,1.3463,1.3474,1.349,1.3498,1.3509,1.3519,1.3532,1.3534,1.3553,1.3549,1.3557,1.3564,1.3565,1.3567,1.3569,1.3569,1.3569,1.357,1.3569,1.3569,1.3569,0,1.3371,1.3395,1.3408,1.3416,1.344,1.3446,1.3457,1.3473,1.3482,1.3497,1.3503,1.3519,1.3527,1.354,1.3554,1.3554,1.3571,1.3574,1.3577,1.3577,1.358,1.358,1.3582,1.3585,1.3585,1.3585,1.3585,0,1.3373,1.3383,1.3405,1.3413,1.3425,1.3441,1.3452,1.3464,1.3478,1.3489,1.3501,1.3511,1.3529,1.3542,1.3553,1.3566,1.357,1.3577,1.358,1.3576,1.3575,1.3581,1.3581,1.3585,1.3585,1.3585,1.3585,0,1.3365,1.338,1.3396,1.3418,1.3424,1.3431,1.345,1.3459,1.3471,1.3484,1.3488,1.3507,1.3522,1.3537,1.3558,1.3565,1.3579,1.3583,1.3573,1.3575,1.3578,1.3578,1.3584,1.3586,1.3587,1.3587,1.3587,0,1.3365,1.3373,1.3396,1.3404,1.3414,1.3427,1.3437,1.3453,1.3463,1.3483,1.3489,1.3505,1.3519,1.3543,1.3558,1.3574,1.3578,1.358,1.3581,1.3577,1.3579,1.3578,1.358,1.3579,1.3579,1.3579,1.3579,0,1.3363,1.3371,1.3384,1.3401,1.3413,1.3426,1.344,1.3447,1.3465,1.3476,1.3491,1.3502,1.3523,1.3539,1.3557,1.3568,1.3577,1.3578,1.358,1.3576,1.3571,1.3575,1.3572,1.3578,1.3578,1.3578,1.3578,1.3578,1.336,1.3368,1.3386,1.3401,1.3413,1.3426,1.3436,1.3449,1.3463,1.3481,1.349,1.3506,1.3523,1.3548,1.3558,1.3571,1.3574,1.3576,1.3577,1.3577,1.3576,1.3569,1.3574,1.3575,1.3575,1.3575,1.3575,0,1.3359,1.3371,1.3385,1.3405,1.3417,1.3424,1.3441,1.345,1.3464,1.3479,1.3493,1.3511,1.3527,1.3544,1.3561,1.3568,1.3573,1.3572,1.3572,1.3574,1.3573,1.357,1.3568,1.3568,1.3568,1.3568,1.3568,1.3568,1.336,1.3375,1.3384,1.3405,1.3417,1.3433,1.3442,1.3455,1.3467,1.3487,1.35,1.3511,1.3528,1.3546,1.3561,1.3566,1.3571,1.357,1.3575,1.3574,1.3574,1.3575,1.3572,1.3571,1.3571,1.3576,1.3576,1.3576]}]]